Weather History for Valparaiso, FL

Change the Weather History Date:

Thursday, March 7, 2013

  Actual Average Record
Temperature  
Mean Temperature 46 °F -  
Max Temperature 58 °F 68 °F 80 °F (1951)
Min Temperature 34 °F 40 °F 24 °F (1986)
Degree Days  
Heating Degree Days 19    
Moisture  
Dew Point 34 °F    
Average Humidity 64    
Maximum Humidity 89    
Minimum Humidity 30    
Precipitation  
Precipitation 0.00 in - - ()
Sea Level Pressure  
Sea Level Pressure 30.27 in    
Wind  
Wind Speed 7 mph (NW)    
Max Wind Speed 14 mph    
Max Gust Speed -    
Visibility 10 miles    
Events      
Averages and records for this station are not official NWS values.
T = Trace of Precipitation, MM = Missing Value Source: NWS Daily Summary

Daily Weather History Graph

Daily Weather History Graph

Search for Another Location

Airport:

Trip Planner

Search our weather history database for the weather conditions in past years. The results will help you decide how hot, cold, wet, or windy it might be!

Date:

Astronomy

Mar. 07, 2013 Rise Set
Actual Time 6:05 AM CST 5:49 PM CST
Civil Twilight 5:41 AM CST 6:13 PM CST
Nautical Twilight 5:13 AM CST 6:41 PM CST
Astronomical Twilight 4:45 AM CST 7:09 PM CST
Moon 2:49 AM CST (3/7) 1:50 PM CST (3/7)
Length of Visible Light 12h 32m
Length of Day
11h 44m
Waning Crescent, 20% of the Moon is Illuminated
Mar 7
Waning Crescent
Mar 11
New
Mar 19
First Quarter
Mar 27
Full
Apr 2
Last Quarter

Hourly Weather History & Observations

Time (CST) Temp. Windchill Dew Point Humidity Pressure Visibility Wind Dir Wind Speed Gust Speed Precip Events Conditions
12:55 AM 39.0 °F 35.7 °F 29.8 °F 70% 30.26 in 10.0 mi NNW 4.6 mph - N/A   Clear
1:55 AM 37.6 °F 35.1 °F 29.7 °F 73% 30.26 in 10.0 mi NNE 3.5 mph - N/A   Clear
2:55 AM 35.4 °F 29.7 °F 29.3 °F 78% 30.25 in 10.0 mi North 6.9 mph - N/A   Clear
3:55 AM 36.0 °F 29.6 °F 29.3 °F 77% 30.24 in 10.0 mi North 8.1 mph - N/A   Clear
4:55 AM 35.1 °F 31.0 °F 28.6 °F 77% 30.26 in 10.0 mi NNW 4.6 mph - N/A   Clear
5:55 AM 34.5 °F 30.4 °F 29.3 °F 81% 30.26 in 10.0 mi NNE 4.6 mph - N/A   Mostly Cloudy
6:55 AM 36.3 °F 29.5 °F 29.1 °F 75% 30.28 in 10.0 mi North 9.2 mph - N/A   Mostly Cloudy
7:55 AM 41.7 °F 36.7 °F 29.3 °F 61% 30.31 in 10.0 mi North 8.1 mph - N/A   Scattered Clouds
8:55 AM 46.0 °F 41.0 °F 27.7 °F 49% 30.34 in 10.0 mi North 10.4 mph - N/A   Partly Cloudy
9:55 AM 50.2 °F - 28.2 °F 43% 30.34 in 10.0 mi NNW 4.6 mph - N/A   Partly Cloudy
10:55 AM 55.0 °F - 26.2 °F 33% 30.33 in 10.0 mi NNE 5.8 mph - N/A   Clear
11:55 AM 57.9 °F - 26.1 °F 30% 30.30 in 10.0 mi SW 8.1 mph - N/A   Partly Cloudy
12:55 PM 57.7 °F - 33.4 °F 40% 30.27 in 10.0 mi South 9.2 mph - N/A   Partly Cloudy
1:55 PM 56.5 °F - 36.3 °F 47% 30.25 in 10.0 mi SSW 12.7 mph - N/A   Partly Cloudy
2:55 PM 57.7 °F - 38.1 °F 48% 30.24 in 10.0 mi South 13.8 mph - N/A   Mostly Cloudy
3:55 PM 58.3 °F - 39.0 °F 49% 30.24 in 10.0 mi SW 6.9 mph - N/A   Mostly Cloudy
4:55 PM 56.8 °F - 41.2 °F 56% 30.22 in 10.0 mi SW 6.9 mph - N/A   Mostly Cloudy
5:55 PM 55.2 °F - 43.2 °F 64% 30.24 in 10.0 mi WSW 5.8 mph - N/A   Mostly Cloudy
6:55 PM 53.1 °F - 41.9 °F 66% 30.24 in 10.0 mi West 6.9 mph - N/A   Mostly Cloudy
7:55 PM 49.1 °F - 41.5 °F 75% 30.24 in 10.0 mi West 6.9 mph - N/A   Mostly Cloudy
8:55 PM 45.5 °F 42.5 °F 40.6 °F 83% 30.25 in 10.0 mi West 5.8 mph - N/A   Scattered Clouds
9:55 PM 43.7 °F 39.1 °F 40.5 °F 88% 30.25 in 10.0 mi WNW 8.1 mph - N/A   Partly Cloudy
10:55 PM 43.3 °F 39.9 °F 40.3 °F 89% 30.25 in 10.0 mi WNW 5.8 mph - N/A   Partly Cloudy
11:55 PM 41.9 °F 39.0 °F 37.8 °F 85% 30.25 in 10.0 mi NW 4.6 mph - N/A   Partly Cloudy